OE5HCE Weather Reports


Display with metric or nautical units.
time (UTC)temp
F
wind
direction
speed
MPH
gust
MPH
rain 1hr
in
rain 24hr
in
rain mn
in
humidity
%
barometer
mb
20260505124558 78 34 0.0 0.0 0.00 0.00 0.00 37 1005.2
20260505123056 81 93 0.0 0.0 0.00 0.00 0.00 36 1005.4
20260505121547 80 60 0.0 0.0 0.00 0.00 0.00 37 1005.5
20260505120059 79 95 0.0 0.0 0.00 0.00 0.00 39 1005.8
20260505114541 79 32 0.0 0.0 0.00 0.00 0.00 37 1005.9
20260505113043 77 38 0.0 0.0 0.00 0.00 0.00 40 1006.1
20260505111538 79 71 0.0 0.0 0.00 0.00 0.00 43 1006.3
20260505101525 75 40 0.0 0.0 0.00 0.00 0.00 46 1007.0
20260505100024 74 38 0.0 0.0 0.00 0.00 0.00 49 1007.2
20260505094519 73 40 0.0 0.0 0.00 0.00 0.00 49 1007.3
20260505093014 72 24 0.0 0.0 0.00 0.00 0.00 52 1007.4
20260505091513 72 50 0.0 0.0 0.00 0.00 0.00 54 1007.6
20260505090009 71 40 0.0 0.0 0.00 0.00 0.00 57 1007.7
20260505084513 70 49 0.0 0.0 0.00 0.00 0.00 56 1007.8
20260505083002 69 255 0.0 0.0 0.00 0.00 0.00 54 1007.9
20260505081559 68 26 0.0 0.0 0.00 0.00 0.00 55 1007.9
20260505080106 67 348 0.0 0.0 0.00 0.00 0.00 57 1008.1
20260505074550 66 209 0.0 0.0 0.00 0.00 0.00 62 1008.3
20260505073047 65 319 0.0 0.0 0.00 0.00 0.00 61 1008.4
20260505071543 64 250 0.0 0.0 0.00 0.00 0.00 63 1008.3
20260505070044 63 246 0.0 0.0 0.00 0.00 0.00 63 1008.4
20260505064535 62 232 0.0 0.0 0.00 0.00 0.00 64 1008.5
20260505063033 62 246 0.0 0.0 0.00 0.00 0.00 67 1008.6
20260505061526 60 248 0.0 0.0 0.00 0.00 0.00 71 1008.7
20260505060020 58 250 0.0 0.0 0.00 0.00 0.00 76 1008.8
20260505054516 57 250 0.0 0.0 0.00 0.00 0.00 76 1008.8
20260505053012 56 249 0.0 0.0 0.00 0.00 0.00 77 1008.9
20260505051510 54 250 0.0 0.0 0.00 0.00 0.00 78 1008.8
20260505041551 53 249 0.0 0.0 0.00 0.00 0.00 78 1009.0
20260505040049 53 249 0.0 0.0 0.00 0.00 0.00 78 1009.0
20260505034611 53 249 0.0 0.0 0.00 0.00 0.00 78 1008.9
20260505033052 54 248 0.0 0.0 0.00 0.00 0.00 78 1008.9
20260505031542 54 249 0.0 0.0 0.00 0.00 0.00 77 1008.9
20260505030040 55 249 0.0 0.0 0.00 0.00 0.00 77 1008.9
20260505024538 55 249 0.0 0.0 0.00 0.00 0.00 76 1009.0
20260505023035 56 249 0.0 0.0 0.00 0.00 0.00 75 1009.1
20260505021533 56 249 0.0 0.0 0.00 0.00 0.00 75 1009.1
20260505020033 56 249 0.0 0.0 0.00 0.00 0.00 75 1009.1
20260505014531 57 249 0.0 0.0 0.00 0.00 0.00 74 1009.1
20260505013030 57 249 0.0 0.0 0.00 0.00 0.00 73 1009.1
20260505011545 57 249 0.0 0.0 0.00 0.00 0.00 73 1009.2
20260505010025 57 256 0.0 0.0 0.00 0.00 0.00 73 1009.4
20260505004524 57 256 0.0 0.0 0.00 0.00 0.00 73 1009.6
20260505003022 58 256 0.0 0.0 0.00 0.00 0.00 72 1009.5
20260505001520 58 256 0.0 0.0 0.00 0.00 0.00 72 1009.5
20260505000019 58 255 0.0 0.0 0.00 0.00 0.00 71 1009.6
20260504234517 58 254 0.0 0.0 0.00 0.00 0.00 71 1009.8
20260504233013 59 219 0.0 0.0 0.00 0.00 0.00 69 1009.9
20260504231510 60 219 0.0 0.0 0.00 0.00 0.00 67 1010.0
20260504230008 61 218 0.0 0.0 0.00 0.00 0.00 66 1010.2
20260504224606 61 219 0.0 0.0 0.00 0.00 0.00 65 1010.3
20260504223003 62 223 0.0 0.0 0.00 0.00 0.00 64 1010.4
20260504221502 61 286 0.0 0.0 0.00 0.00 0.00 64 1010.5
20260504214607 63 289 0.0 0.0 0.00 0.00 0.00 61 1010.6
20260504213057 64 34 0.0 0.0 0.00 0.00 0.00 60 1010.5
20260504211557 64 34 0.0 0.0 0.00 0.00 0.00 58 1010.4
20260504210059 65 31 0.0 0.0 0.00 0.00 0.00 56 1010.3
20260504204604 67 43 0.0 0.0 0.00 0.00 0.00 53 1010.4
20260504203059 68 244 0.0 0.0 0.00 0.00 0.00 51 1010.5
20260504201556 67 257 0.0 0.0 0.00 0.00 0.00 53 1010.3
20260504194603 66 146 0.0 0.0 0.00 0.00 0.00 58 1009.9
20260504193057 68 80 0.0 0.0 0.00 0.00 0.00 57 1009.6
20260504191608 69 80 0.0 0.0 0.00 0.00 0.00 51 1009.5
20260504190052 71 80 0.0 0.0 0.00 0.00 0.00 49 1009.4
20260504184552 71 80 0.0 0.0 0.00 0.00 0.00 49 1009.2
20260504183053 72 80 0.0 0.0 0.00 0.00 0.00 49 1009.2
20260504181556 73 80 0.0 0.0 0.00 0.00 0.00 48 1009.1
20260504180051 74 80 0.0 0.0 0.00 0.00 0.00 46 1009.1
20260504174551 75 80 0.0 0.0 0.00 0.00 0.00 44 1009.1
20260504173049 76 80 0.0 0.0 0.00 0.00 0.00 43 1009.1
20260504171551 77 76 0.0 0.0 0.00 0.00 0.00 43 1009.1